This demonstration page uses our WeatherBlox Daily Observations layout. Learn more.

Left ArrowRight Arrow

39.01783, -85.05884

Hourly Observations for July 15, 2018

Temp ( °F °C ) Dew Point ( °F °C ) Humidity (%) Winds ( mph kmh ) Pressure ( in mb ) Visibility ( mi km ) Precip ( " mm )
12:52 am 00:52 Cloudy 76 24.4 67 19.4 74 74 SW 3 6 30.01 1016 10 16 0.00 0.00
1:52 am 01:52 Cloudy 74 23.3 67 19.4 79 79 Calm 30.01 1016 9 14 0.00 0.00
2:52 am 02:52 Mostly Cloudy 75 23.9 66 18.9 74 74 S 5 7 29.98 1015 10 16 0.00 0.00
3:52 am 03:52 Cloudy 74 23.3 66 18.9 76 76 SW 3 6 29.99 1016 10 16 0.00 0.00
4:52 am 04:52 Cloudy 73 22.8 67 19.4 81 81 Calm 29.99 1016 9 14 0.00 0.00
5:52 am 05:52 Cloudy 74 23.3 67 19.4 79 79 Calm 30.00 1016 9 14 0.00 0.00
6:52 am 06:52 Cloudy 75 23.9 68 20 79 79 Calm 30.01 1016 9 14 0.00 0.00
7:52 am 07:52 Cloudy 76 24.4 68 20 77 77 Calm 30.02 1017 8 13 0.00 0.00
8:52 am 08:52 Cloudy 76 24.4 70 21.1 82 82 Calm 30.03 1017 8 13 0.00 0.03
9:52 am 09:52 Cloudy 79 26.1 70 21.1 74 74 WSW 3 6 30.02 1017 8 13 0.00 0.00
10:52 am 10:52 Cloudy 81 27.2 70 21.1 69 69 S 3 6 30.00 1016 8 13 0.00 0.00
11:52 am 11:52 Cloudy 82 27.8 70 21.1 67 67 Calm 29.99 1016 8 13 0.00 0.00
12:52 pm 12:52 Cloudy 84 28.9 70 21.1 63 63 SSW 8 13 30.00 1016 8 13 0.00 0.00
1:52 pm 13:52 Cloudy 86 30 71 21.7 61 61 S 10 17 30.01 1016 9 14 0.00 0.00
2:52 pm 14:52 Cloudy 86 30 71 21.7 61 61 S 9 15 30.00 1016 9 14 0.00 0.00
3:52 pm 15:52 Cloudy 83 28.3 71 21.7 67 67 SW 12 19 29.98 1015 8 13 0.00 0.00
4:52 pm 16:52 Cloudy 84 28.9 74 23.3 72 72 VRB 7 11 29.96 1015 7 11 0.00 0.00
5:52 pm 17:52 Cloudy 83 28.3 73 22.8 72 72 WSW 5 7 29.97 1015 8 13 0.00 0.00
6:52 pm 18:52 Cloudy 81 27.2 73 22.8 77 77 SW 8 13 29.97 1015 9 14 0.00 0.00
7:52 pm 19:52 Cloudy 80 26.7 73 22.8 79 79 SW 5 7 29.95 1014 10 16 0.00 0.00
8:52 pm 20:52 Mostly Cloudy 79 26.1 70 21.1 74 74 SW 3 6 29.96 1014 10 16 0.00 0.00
9:52 pm 21:52 Mostly Cloudy 76 24.4 69 20.6 79 79 SSW 5 7 29.95 1014 10 16 0.00 0.00
10:52 pm 22:52 Partly Cloudy 76 24.4 70 21.1 82 82 Calm 29.98 1015 10 16 0.00 0.00
11:52 pm 23:52 Mostly Cloudy 75 23.9 70 21.1 84 84 SSE 3 6 29.98 1015 10 16 0.00 0.00

Powered by AerisWeather